Regional Weather Roundup
Issued by NWS

Home | Current Version | Previous Version | Graphics & Text | Print | Product List | Glossary On
Versions: 1 2 3 4 5 6 7 8 9 10 11 12 13 14 15 16 17 18 19 20 21 22 23 24 25 26 27 28 29 30 31 32 33 34 35 36 37 38 39 40 41 42 43 44 45 46 47 48 49 50
000
ASUS45 KSLC 021110
RWRUT

UTAH REGIONAL WEATHER ROUNDUP
NATIONAL WEATHER SERVICE SALT LAKE CITY UT
500 AM MDT SAT MAY 02 2015

UTZ001>011-023>025-021200-

NORTHERN UTAH

CITY           SKY/WX    TMP DP  RH WIND       PRES   REMARKS
BRIGHAM CITY   PTCLDY    49  38  64 CALM      29.94S
HILL AFB       MOCLDY    58  35  42 E13       29.95S
LOGAN          CLEAR     43  37  79 CALM      29.95S
OGDEN          PTCLDY    55  38  52 S8        29.93S
PROVO AIRPORT  MOCLDY    59  39  47 SE10      29.97S
SALT LAKE CITY MOCLDY    61  37  41 SE8       29.92F
VERNAL         MOCLDY    48  37  65 SE3       30.03S
WENDOVER       PTCLDY    55  30  38 W3        29.92S
HEBER CITY     PTCLDY    45  37  76 CALM      30.02F
WEST JORDAN    PTCLDY    57  41  54 CALM      29.96S

$$

UTZ012>022-026-027-021200-

SOUTHERN/CENTRAL UTAH

CITY           SKY/WX    TMP DP  RH WIND       PRES   REMARKS
BLANDING       PTCLDY    47  28  46 N7        30.12S
BRYCE CANYON   PTCLDY    31  24  75 NW6       30.16S WCI  25
CEDAR CITY     PTCLDY    49  26  41 E5        30.04S
DELTA          MOCLDY    50  35  56 SW6       29.98S
HANKSVILLE     PTCLDY    52  32  46 CALM      30.00S
MILFORD        PTCLDY    46  25  43 SW8       30.00S
MOAB/CYNLANDS  CLEAR     54  36  50 CALM      29.96S
PRICE          PTCLDY    51  29  42 CALM      30.04S
ST GEORGE      MOSUNNY   63  25  23 SE5       29.93R
KANAB          PTCLDY    43  30  61 NE5       30.07S

$$

REGIONAL REPORTS     COLORADO/ARIZONA

CITY           SKY/WX    TMP DP  RH WIND       PRES   REMARKS
CRAIG, CO      CLOUDY    41  37  86 CALM      30.09R
GRAND JUNCTION MOCLDY    55  38  52 SE7       30.00S
RIFLE          PTCLDY    46  35  65 E3        30.07S
MONTROSE       CLOUDY    50  33  52 SE3       30.09R
CORTEZ         CLEAR     41  31  67 E7        30.08S
PAGE, AZ       NOT AVBL
GRAND CANYON   PTCLDY    35  24  64 NE5       30.14S WCI  31
KINGMAN        PTCLDY    65  27  23 CALM      29.93S
FLAGSTAFF      PTCLDY    42  25  50 CALM      30.15F

$$

REGIONAL REPORTS    NEVADA/IDAHO/WYOMING

CITY           SKY/WX    TMP DP  RH WIND       PRES   REMARKS
LAS VEGAS, NV  PTCLDY    74  28  18 S12       29.80S
ELY            MOCLDY    44  25  47 S13       30.05S
ELKO           MOCLDY    46  30  53 CALM      29.97S
POCATELLO, ID  CLEAR     42  28  57 CALM      29.94S
BURLEY         CLEAR     44  32  62 SW3       29.91S
EVANSTON, WY   PTCLDY    48  32  53 S7        30.08S
ROCK SPRINGS   PTCLDY    48  29  47 W5        30.06S
KEMMERER       PTCLDY    36  28  75 N7        30.09S WCI  30

$$


USA.gov is the U.S. government's official web portal to all federal, state and local government web resources and services.